Location: Asheville, NC
(35.6000°N, 82.5500°W)
Time: 17:01:56
(UTC-05:00)

ISS - Pass Details

Date: 12 February 2018
Orbit: 403 x 407 km, 51.6° (Epoch: 19 February)

Event Time Altitude Azimuth Distance (km) Brightness Sun altitude
Rises 18:44:59 0° 316° (NW) 2,314 0.5 -7.9°
Reaches altitude 10° 18:47:06 10° 322° (NW) 1,453 -0.6 -8.3°
Maximum altitude 18:50:17 50° 39° (NE) 520 -3.6 -9.0°
Drops below altitude 10° 18:53:27 10° 116° (ESE) 1,447 -1.5 -9.6°
Enters shadow 18:53:39 - 117° (ESE) 1,525 -1.4 -9.6°
